{"data":{"norad_id":67776,"intl_designator":"2026-030N","name":"KUIPER-00209","alt_names":[],"object_type":"PAYLOAD","status":"ACTIVE","operator":null,"country":"US","launch_date":"2026-02-12","launch_site_code":"FRGUI","launch_vehicle":null,"mission":null,"orbit_class":"UNKNOWN","rcs_meters":null,"size_class":null,"mass_kg":null,"dimensions":null,"purposes":[],"wikipedia_slug":null,"has_3d_model":false,"image_url":null,"decayed_at":null,"tle_current":{"epoch":"2026-05-24T22:22:18.115104Z","epoch_age_seconds":74791,"freshness":"FRESH","line1":"1 67776U 26030N   26144.93215411  .00001750  00000+0  25857-3 0  9999","line2":"2 67776  51.8985 231.0584 0000464 169.5338 190.5634 14.79912625 16532","mean_motion":14.79912625,"eccentricity":4.64e-5,"inclination_deg":51.8985,"raan_deg":231.0584,"arg_perigee_deg":169.5338,"mean_anomaly_deg":190.5634,"bstar":0.00025857,"rev_number":1653,"period_min":97.303041792754,"perigee_km":629.27478974457,"apogee_km":629.92510773341,"semimajor_km":7007.736948739,"source":"CELESTRAK","updated_at":"2026-05-25T13:38:07.257898Z"}}}